VIR129R EGLL-KTPA

Flight info

Callsign VIR129R
Flight time 8h 26m
Altitude 36000
Route CPT DCT DIDZA L9 OKSAW DCT BIBPE DCT BUCGO DCT FELCA DCT OFSOX DCT BANBA DCT LIMRI/M085F370 NATE JOOPY/M084F380 DCT CARAC M201 TILED/M084F400 M201 VEGAA Y493 TUBBS/N0478F400 Y493 BAHAA DCT HIBAC DADES2
Aircraft A35K/H-SDE2E3GHIJ3J4J5LM1ORWXY/LB1D1

Departure

Time 2026-04-30 11:47
Airport London Heathrow Airport (EGLL)

Arrival

Time 2026-04-30 20:14
Airport Tampa International Airport (KTPA)
Time Latitude Longitude Altitude Speed Heading
2026-04-30 11:02 51.47292 -0.46124 92 ft 0 kts 235°
2026-04-30 11:18 51.47293 -0.46122 92 ft 0 kts 235°
2026-04-30 11:18 51.47292 -0.46124 92 ft 0 kts 235°
2026-04-30 11:34 51.47299 -0.46108 92 ft 4 kts 236°
2026-04-30 11:35 51.47314 -0.46072 91 ft 4 kts 237°
2026-04-30 11:35 51.47328 -0.46035 91 ft 4 kts 243°
2026-04-30 11:35 51.47335 -0.46014 91 ft 4 kts 251°
2026-04-30 11:35 51.47345 -0.46042 93 ft 4 kts 319°
2026-04-30 11:36 51.47365 -0.46064 95 ft 4 kts 325°
2026-04-30 11:36 51.47377 -0.46077 97 ft 0 kts 325°
2026-04-30 11:38 51.47384 -0.46084 96 ft 5 kts 325°
2026-04-30 11:39 51.47464 -0.46171 94 ft 21 kts 327°
2026-04-30 11:39 51.47512 -0.46371 95 ft 21 kts 272°
2026-04-30 11:39 51.47514 -0.46608 93 ft 22 kts 268°
2026-04-30 11:39 51.47480 -0.46848 96 ft 22 kts 231°
2026-04-30 11:40 51.47354 -0.46863 94 ft 18 kts 172°
2026-04-30 11:40 51.47225 -0.46861 92 ft 19 kts 180°
2026-04-30 11:40 51.47089 -0.46861 93 ft 20 kts 180°
2026-04-30 11:40 51.46946 -0.46863 93 ft 21 kts 180°
2026-04-30 11:41 51.46842 -0.46862 94 ft 0 kts 179°
2026-04-30 11:41 51.46837 -0.46862 94 ft 2 kts 180°
2026-04-30 11:41 51.46832 -0.46862 94 ft 0 kts 180°
2026-04-30 11:41 51.46798 -0.46861 95 ft 16 kts 179°
2026-04-30 11:42 51.46750 -0.46968 97 ft 14 kts 261°
2026-04-30 11:42 51.46747 -0.47224 95 ft 27 kts 270°
2026-04-30 11:42 51.46745 -0.47570 95 ft 35 kts 269°
2026-04-30 11:42 51.46742 -0.47904 92 ft 18 kts 267°
2026-04-30 11:43 51.46742 -0.48062 93 ft 0 kts 270°
2026-04-30 11:43 51.46742 -0.48076 92 ft 2 kts 269°
2026-04-30 11:43 51.46742 -0.48140 92 ft 14 kts 270°
2026-04-30 11:43 51.46741 -0.48393 92 ft 27 kts 269°
2026-04-30 11:44 51.46738 -0.48665 92 ft 13 kts 264°
2026-04-30 11:44 51.46674 -0.48735 96 ft 12 kts 188°
2026-04-30 11:44 51.46638 -0.48748 95 ft 1 kts 194°
2026-04-30 11:44 51.46633 -0.48750 95 ft 0 kts 195°
2026-04-30 11:45 51.46606 -0.48763 95 ft 17 kts 195°
2026-04-30 11:45 51.46488 -0.48710 95 ft 18 kts 118°
2026-04-30 11:46 51.46481 -0.48592 92 ft 0 kts 88°
2026-04-30 11:46 51.46481 -0.48571 92 ft 13 kts 89°
2026-04-30 11:47 51.46481 -0.48045 93 ft 80 kts 90°
2026-04-30 11:47 51.46486 -0.46832 99 ft 136 kts 90°
2026-04-30 11:47 51.46495 -0.45119 428 ft 153 kts 90°
2026-04-30 11:47 51.46519 -0.43372 1042 ft 162 kts 89°
2026-04-30 11:48 51.46552 -0.41493 1499 ft 174 kts 90°
2026-04-30 11:48 51.46595 -0.39487 2000 ft 185 kts 91°
2026-04-30 11:48 51.46321 -0.37432 2402 ft 202 kts 121°
2026-04-30 11:48 51.45151 -0.36006 2685 ft 230 kts 161°
2026-04-30 11:49 51.43506 -0.36147 3235 ft 251 kts 197°
2026-04-30 11:49 51.42149 -0.37972 3961 ft 266 kts 232°
2026-04-30 11:49 51.41612 -0.40857 4627 ft 283 kts 266°
2026-04-30 11:49 51.42125 -0.43945 5220 ft 296 kts 300°
2026-04-30 11:50 51.43402 -0.46546 5754 ft 298 kts 309°
2026-04-30 11:50 51.44549 -0.49305 6261 ft 297 kts 293°
2026-04-30 11:50 51.45257 -0.52387 7062 ft 293 kts 281°
2026-04-30 11:50 51.45654 -0.55598 7807 ft 294 kts 274°
2026-04-30 11:51 51.45838 -0.58883 8512 ft 298 kts 269°
2026-04-30 11:51 51.45893 -0.62220 9256 ft 301 kts 266°
2026-04-30 11:51 51.45875 -0.65596 10012 ft 304 kts 265°
2026-04-30 11:51 51.45816 -0.68978 10578 ft 313 kts 264°
2026-04-30 11:52 51.45727 -0.72617 10904 ft 331 kts 264°
2026-04-30 11:52 51.45621 -0.76349 11216 ft 348 kts 264°
2026-04-30 11:52 51.45503 -0.80328 11533 ft 365 kts 264°
2026-04-30 11:52 51.45376 -0.84469 11878 ft 378 kts 264°
2026-04-30 11:53 51.45379 -0.88724 12413 ft 387 kts 274°
2026-04-30 11:53 51.45808 -0.93014 13046 ft 392 kts 278°
2026-04-30 11:53 51.46325 -0.97335 13688 ft 396 kts 279°
2026-04-30 11:53 51.46844 -1.01703 14281 ft 400 kts 278°
2026-04-30 11:54 51.47357 -1.06112 14845 ft 404 kts 278°
2026-04-30 11:54 51.47868 -1.10561 15430 ft 407 kts 278°
2026-04-30 11:54 51.48379 -1.15046 16037 ft 410 kts 277°
2026-04-30 11:54 51.49021 -1.19522 16604 ft 417 kts 286°
2026-04-30 11:55 51.50387 -1.23667 17168 ft 424 kts 306°
2026-04-30 11:55 51.52311 -1.27292 17737 ft 430 kts 313°
2026-04-30 11:55 51.54458 -1.30664 18268 ft 435 kts 316°
2026-04-30 11:55 51.56720 -1.33944 18782 ft 439 kts 317°
2026-04-30 11:56 51.58994 -1.37232 19289 ft 442 kts 314°
2026-04-30 11:56 51.60977 -1.41000 19800 ft 443 kts 303°
2026-04-30 11:56 51.62652 -1.45108 20316 ft 446 kts 299°
2026-04-30 11:56 51.64236 -1.49499 20790 ft 451 kts 296°
2026-04-30 11:57 51.65712 -1.53907 21335 ft 454 kts 295°
2026-04-30 11:57 51.67178 -1.58422 21870 ft 457 kts 295°
2026-04-30 11:57 51.68651 -1.62992 22404 ft 461 kts 295°
2026-04-30 11:57 51.69922 -1.67734 22879 ft 461 kts 285°
2026-04-30 11:58 51.70672 -1.72755 23390 ft 462 kts 277°
2026-04-30 11:58 51.71190 -1.77876 23877 ft 464 kts 274°
2026-04-30 11:58 51.71600 -1.83049 24331 ft 466 kts 273°
2026-04-30 11:58 51.71960 -1.88261 24802 ft 469 kts 272°
2026-04-30 11:59 51.72304 -1.93503 25253 ft 472 kts 272°
2026-04-30 11:59 51.72647 -1.98785 25708 ft 475 kts 272°
2026-04-30 11:59 51.72997 -2.04099 26176 ft 478 kts 272°
2026-04-30 11:59 51.73357 -2.09440 26636 ft 480 kts 272°
2026-04-30 12:00 51.73725 -2.14810 27080 ft 483 kts 272°
2026-04-30 12:00 51.74096 -2.20201 27515 ft 486 kts 272°
2026-04-30 12:00 51.74470 -2.25642 27948 ft 488 kts 272°
2026-04-30 12:00 51.74843 -2.31097 28378 ft 491 kts 272°
2026-04-30 12:01 51.75217 -2.36587 28804 ft 493 kts 272°
2026-04-30 12:01 51.75590 -2.42118 29215 ft 496 kts 272°
2026-04-30 12:01 51.75959 -2.47637 29819 ft 494 kts 272°
2026-04-30 12:01 51.76325 -2.53143 30319 ft 494 kts 272°
2026-04-30 12:02 51.76689 -2.58672 30590 ft 497 kts 272°
2026-04-30 12:02 51.77050 -2.64176 30853 ft 500 kts 272°
2026-04-30 12:02 51.77415 -2.69764 31152 ft 502 kts 272°
2026-04-30 12:02 51.77775 -2.75369 31422 ft 504 kts 272°
2026-04-30 12:03 51.78135 -2.81035 31613 ft 507 kts 272°
2026-04-30 12:03 51.78848 -2.92386 32463 ft 507 kts 272°
2026-04-30 12:03 51.79201 -2.98050 32841 ft 506 kts 272°
2026-04-30 12:04 51.79551 -3.03706 33199 ft 506 kts 272°
2026-04-30 12:04 51.79897 -3.09341 33548 ft 505 kts 272°
2026-04-30 12:04 51.80241 -3.14986 33862 ft 504 kts 272°
2026-04-30 12:04 51.80582 -3.20615 34182 ft 503 kts 272°
2026-04-30 12:05 51.80919 -3.26246 34452 ft 502 kts 272°
2026-04-30 12:05 51.81248 -3.31780 34722 ft 500 kts 272°
2026-04-30 12:05 51.81577 -3.37368 35000 ft 499 kts 272°
2026-04-30 12:05 51.81903 -3.42940 35303 ft 496 kts 272°
2026-04-30 12:06 51.82223 -3.48457 35731 ft 491 kts 272°
2026-04-30 12:06 51.82632 -3.53946 35945 ft 493 kts 277°
2026-04-30 12:06 51.83257 -3.59407 36088 ft 495 kts 278°
2026-04-30 12:07 51.84640 -3.70391 36138 ft 502 kts 279°
2026-04-30 12:07 51.86082 -3.81439 36139 ft 502 kts 279°
2026-04-30 12:08 51.87509 -3.92480 36141 ft 501 kts 278°
2026-04-30 12:08 51.88914 -4.03528 36124 ft 500 kts 278°
2026-04-30 12:09 51.90299 -4.14554 36127 ft 500 kts 278°
2026-04-30 12:09 51.91665 -4.25521 36117 ft 500 kts 278°
2026-04-30 12:10 51.93030 -4.36561 36108 ft 500 kts 278°
2026-04-30 12:10 51.94385 -4.47613 36108 ft 501 kts 277°
2026-04-30 12:11 51.95734 -4.58707 36113 ft 501 kts 277°
2026-04-30 12:11 51.97073 -4.69809 36102 ft 502 kts 277°
2026-04-30 12:12 51.98404 -4.80941 36102 ft 503 kts 277°
2026-04-30 12:12 51.99725 -4.92078 36115 ft 503 kts 277°
2026-04-30 12:13 52.01037 -5.03229 36099 ft 504 kts 277°
2026-04-30 12:13 52.02323 -5.14413 36096 ft 503 kts 275°
2026-04-30 12:14 52.02482 -5.25622 36101 ft 494 kts 261°
2026-04-30 12:14 52.01812 -5.36648 36093 ft 493 kts 259°
2026-04-30 12:15 52.00994 -5.47772 36098 ft 493 kts 258°
2026-04-30 12:15 52.00175 -5.58767 36099 ft 493 kts 259°
2026-04-30 12:16 51.99364 -5.69810 36095 ft 493 kts 259°
2026-04-30 12:16 51.98552 -5.80861 36101 ft 493 kts 259°
2026-04-30 12:17 51.97316 -5.97429 36100 ft 493 kts 258°
2026-04-30 12:17 51.96478 -6.08469 36105 ft 493 kts 258°
2026-04-30 12:18 51.95633 -6.19513 36104 ft 494 kts 259°
2026-04-30 12:18 51.95574 -6.30724 36104 ft 499 kts 268°
2026-04-30 12:19 51.95992 -6.41983 36110 ft 501 kts 269°
2026-04-30 12:19 51.96478 -6.53255 36106 ft 501 kts 269°
2026-04-30 12:20 51.96869 -6.62627 36102 ft 501 kts 269°
2026-04-30 12:20 51.97385 -6.75737 36105 ft 501 kts 269°
2026-04-30 12:21 51.97808 -6.87002 36119 ft 501 kts 269°
2026-04-30 12:21 51.98155 -6.96454 36099 ft 501 kts 269°
2026-04-30 12:22 51.98560 -7.07735 36098 ft 501 kts 269°
2026-04-30 12:22 51.98954 -7.19012 36099 ft 501 kts 269°
2026-04-30 12:23 51.99338 -7.30283 36096 ft 500 kts 269°
2026-04-30 12:23 51.99710 -7.41565 36098 ft 501 kts 268°
2026-04-30 12:24 52.00072 -7.52854 36101 ft 501 kts 268°
2026-04-30 12:24 52.00424 -7.64162 36097 ft 501 kts 268°
2026-04-30 12:25 52.00765 -7.75459 36091 ft 501 kts 268°
2026-04-30 12:25 52.01095 -7.86760 36099 ft 501 kts 268°
2026-04-30 12:26 52.01412 -7.98016 36075 ft 503 kts 268°
2026-04-30 12:26 52.01721 -8.09359 36084 ft 503 kts 268°
2026-04-30 12:27 52.02020 -8.20706 36080 ft 503 kts 268°
2026-04-30 12:27 52.02308 -8.32053 36077 ft 503 kts 268°
2026-04-30 12:28 52.02585 -8.43431 36078 ft 505 kts 268°
2026-04-30 12:28 52.02853 -8.54850 36074 ft 506 kts 268°
2026-04-30 12:29 52.03109 -8.66265 36070 ft 506 kts 268°
2026-04-30 12:29 52.03355 -8.77691 36071 ft 506 kts 267°
2026-04-30 12:30 52.03589 -8.89117 36074 ft 507 kts 267°
2026-04-30 12:30 52.03811 -9.00596 36073 ft 509 kts 267°
2026-04-30 12:31 52.04024 -9.12072 36064 ft 509 kts 267°
2026-04-30 12:31 52.04225 -9.23570 36067 ft 509 kts 267°
2026-04-30 12:32 52.04416 -9.35055 36087 ft 509 kts 267°
2026-04-30 12:32 52.04595 -9.46557 36071 ft 511 kts 267°
2026-04-30 12:33 52.04766 -9.58119 36068 ft 512 kts 266°
2026-04-30 12:33 52.04924 -9.69623 36067 ft 512 kts 266°
2026-04-30 12:34 52.05071 -9.81170 36060 ft 512 kts 266°
2026-04-30 12:34 52.05206 -9.92740 36047 ft 513 kts 266°
2026-04-30 12:35 52.05329 -10.04357 36044 ft 515 kts 266°
2026-04-30 12:35 52.05443 -10.15983 36039 ft 514 kts 266°
2026-04-30 12:36 52.05547 -10.27597 36034 ft 514 kts 266°
2026-04-30 12:36 52.05638 -10.39225 36034 ft 514 kts 266°
2026-04-30 12:37 52.05717 -10.50846 36024 ft 514 kts 266°
2026-04-30 12:37 52.05785 -10.62455 36029 ft 513 kts 266°
2026-04-30 12:38 52.05841 -10.74043 36035 ft 513 kts 266°
2026-04-30 12:38 52.05885 -10.85635 36063 ft 513 kts 266°
2026-04-30 12:39 52.05918 -10.97257 36034 ft 515 kts 266°
2026-04-30 12:39 52.05940 -11.08821 36036 ft 516 kts 266°
2026-04-30 12:40 52.05951 -11.31349 36033 ft 516 kts 265°
2026-04-30 12:41 52.05939 -11.43010 36035 ft 517 kts 266°
2026-04-30 12:41 52.05915 -11.54720 36037 ft 518 kts 266°
2026-04-30 12:42 52.05881 -11.66415 36037 ft 518 kts 266°
2026-04-30 12:42 52.05835 -11.78128 36037 ft 518 kts 265°
2026-04-30 12:43 52.05776 -11.89830 36040 ft 518 kts 266°
2026-04-30 12:43 52.05706 -12.01559 36037 ft 519 kts 266°
2026-04-30 12:44 52.05625 -12.13227 36037 ft 520 kts 265°
2026-04-30 12:44 52.05532 -12.25035 36037 ft 520 kts 265°
2026-04-30 12:45 52.05428 -12.36712 36051 ft 520 kts 266°
2026-04-30 12:45 52.05310 -12.48468 36037 ft 521 kts 266°
2026-04-30 12:46 52.05182 -12.60250 36037 ft 521 kts 266°
2026-04-30 12:46 52.05042 -12.72033 36036 ft 521 kts 266°
2026-04-30 12:47 52.04890 -12.83810 36037 ft 521 kts 265°
2026-04-30 12:47 52.04725 -12.95597 36041 ft 522 kts 266°
2026-04-30 12:48 52.04550 -13.07386 36038 ft 522 kts 266°
2026-04-30 12:48 52.04363 -13.19185 36040 ft 521 kts 265°
2026-04-30 12:49 52.04164 -13.30957 36045 ft 521 kts 265°
2026-04-30 12:49 52.03952 -13.42741 36045 ft 521 kts 266°
2026-04-30 12:50 52.03729 -13.54509 36042 ft 521 kts 266°
2026-04-30 12:50 52.03498 -13.66188 36042 ft 521 kts 266°
2026-04-30 12:51 52.03252 -13.77944 36042 ft 521 kts 266°
2026-04-30 12:51 52.02992 -13.89776 36049 ft 521 kts 266°
2026-04-30 12:52 52.02725 -14.01447 36050 ft 521 kts 266°
2026-04-30 12:52 52.02445 -14.13192 36049 ft 521 kts 266°
2026-04-30 12:53 52.02150 -14.25022 36057 ft 521 kts 266°
2026-04-30 12:53 52.01848 -14.36689 36058 ft 521 kts 266°
2026-04-30 12:54 52.01532 -14.48410 36056 ft 519 kts 266°
2026-04-30 12:54 52.01207 -14.60117 36059 ft 519 kts 266°
2026-04-30 12:55 52.00869 -14.71827 36055 ft 519 kts 266°
2026-04-30 12:55 52.00520 -14.83518 36060 ft 519 kts 266°
2026-04-30 12:56 52.00158 -14.95211 36063 ft 519 kts 266°
2026-04-30 12:56 51.99906 -15.06913 36066 ft 519 kts 271°
2026-04-30 12:57 52.00199 -15.18604 36071 ft 519 kts 273°
2026-04-30 12:57 52.00561 -15.30296 36075 ft 519 kts 272°
2026-04-30 12:58 52.00828 -15.41987 36070 ft 517 kts 271°
2026-04-30 12:58 52.01033 -15.53650 36076 ft 517 kts 271°
2026-04-30 12:59 52.01215 -15.65310 36086 ft 517 kts 271°
2026-04-30 12:59 52.01387 -15.76963 36086 ft 517 kts 271°
2026-04-30 13:00 52.01551 -15.88620 36094 ft 516 kts 271°
2026-04-30 13:00 52.01704 -16.00264 36093 ft 515 kts 271°
2026-04-30 13:01 52.01846 -16.11878 36099 ft 515 kts 271°
2026-04-30 13:01 52.01977 -16.23501 36099 ft 514 kts 271°
2026-04-30 13:02 52.02095 -16.35043 36109 ft 515 kts 271°
2026-04-30 13:02 52.02200 -16.46636 36106 ft 510 kts 272°
2026-04-30 13:03 52.02295 -16.58140 36115 ft 510 kts 272°
2026-04-30 13:03 52.02379 -16.69615 36122 ft 507 kts 271°
2026-04-30 13:04 52.02453 -16.81105 36121 ft 509 kts 272°
2026-04-30 13:04 52.02515 -16.92579 36125 ft 507 kts 273°
2026-04-30 13:05 52.02566 -17.04000 36128 ft 505 kts 272°
2026-04-30 13:06 52.02619 -17.21114 36135 ft 506 kts 271°
2026-04-30 13:06 52.02640 -17.32529 36138 ft 504 kts 271°
2026-04-30 13:07 52.02652 -17.43927 36135 ft 505 kts 271°
2026-04-30 13:07 52.02652 -17.55304 36140 ft 503 kts 272°
2026-04-30 13:08 52.02642 -17.66674 36144 ft 504 kts 271°
2026-04-30 13:08 52.02620 -17.78052 36153 ft 504 kts 271°
2026-04-30 13:09 52.02589 -17.89431 36152 ft 503 kts 271°
2026-04-30 13:09 52.02544 -18.00678 36156 ft 499 kts 272°
2026-04-30 13:10 52.02489 -18.11919 36161 ft 497 kts 271°
2026-04-30 13:10 52.02425 -18.23142 36162 ft 498 kts 271°
2026-04-30 13:11 52.02352 -18.34374 36170 ft 497 kts 271°
2026-04-30 13:11 52.02266 -18.45609 36168 ft 497 kts 271°
2026-04-30 13:12 52.02169 -18.56775 36175 ft 493 kts 271°
2026-04-30 13:12 52.02063 -18.67891 36176 ft 492 kts 271°
2026-04-30 13:13 52.01885 -18.84566 36181 ft 492 kts 271°
2026-04-30 13:14 52.01685 -19.01209 36192 ft 490 kts 271°
2026-04-30 13:14 52.01461 -19.17749 36192 ft 488 kts 270°
2026-04-30 13:15 52.01215 -19.34275 36193 ft 488 kts 270°
2026-04-30 13:16 52.01038 -19.45292 36193 ft 488 kts 270°
2026-04-30 13:16 52.00852 -19.56264 36201 ft 485 kts 270°
2026-04-30 13:17 52.00554 -19.72662 36199 ft 484 kts 270°
2026-04-30 13:18 52.00233 -19.89046 36202 ft 484 kts 270°
2026-04-30 13:18 51.99844 -20.05412 36206 ft 483 kts 267°
2026-04-30 13:19 51.99216 -20.16186 36202 ft 483 kts 265°
2026-04-30 13:19 51.98503 -20.27006 36206 ft 482 kts 265°
2026-04-30 13:20 51.97830 -20.37819 36212 ft 481 kts 265°
2026-04-30 13:20 51.97182 -20.48608 36211 ft 480 kts 265°
2026-04-30 13:21 51.96532 -20.59392 36215 ft 480 kts 265°
2026-04-30 13:22 51.95649 -20.73768 36213 ft 481 kts 265°
2026-04-30 13:22 51.94632 -20.89935 36218 ft 481 kts 265°
2026-04-30 13:23 51.93593 -21.06083 36218 ft 479 kts 265°
2026-04-30 13:24 51.92178 -21.27525 36224 ft 479 kts 265°
2026-04-30 13:25 51.90730 -21.48882 36226 ft 478 kts 265°
2026-04-30 13:26 51.88859 -21.75647 36234 ft 479 kts 264°
2026-04-30 13:28 51.86925 -22.02408 36236 ft 479 kts 264°
2026-04-30 13:28 51.85735 -22.18465 36239 ft 479 kts 264°
2026-04-30 13:29 51.84113 -22.39881 36241 ft 481 kts 264°
2026-04-30 13:31 51.82025 -22.66695 36242 ft 482 kts 264°
2026-04-30 13:32 51.79870 -22.93569 36243 ft 482 kts 264°
2026-04-30 13:33 51.78100 -23.15068 36260 ft 483 kts 264°
2026-04-30 13:34 51.76746 -23.31189 36259 ft 483 kts 264°
2026-04-30 13:35 51.74905 -23.52684 36263 ft 484 kts 264°
2026-04-30 13:36 51.73024 -23.74179 36278 ft 484 kts 264°
2026-04-30 13:36 51.71587 -23.90290 36280 ft 484 kts 264°
2026-04-30 13:37 51.70126 -24.06408 36277 ft 484 kts 264°
2026-04-30 13:38 51.68650 -24.22450 36287 ft 484 kts 264°
2026-04-30 13:39 51.66638 -24.43919 36292 ft 485 kts 264°
2026-04-30 13:40 51.65096 -24.60092 36295 ft 487 kts 264°
2026-04-30 13:40 51.64055 -24.70874 36300 ft 487 kts 264°
2026-04-30 13:41 51.63003 -24.81659 36299 ft 487 kts 263°
2026-04-30 13:41 51.61941 -24.92435 36292 ft 487 kts 264°
2026-04-30 13:42 51.60875 -25.03155 36303 ft 488 kts 263°
2026-04-30 13:42 51.59249 -25.19316 36303 ft 488 kts 263°
2026-04-30 13:43 51.58152 -25.30085 36308 ft 488 kts 263°
2026-04-30 13:43 51.57044 -25.40853 36308 ft 488 kts 263°
2026-04-30 13:44 51.55928 -25.51611 36311 ft 488 kts 263°
2026-04-30 13:44 51.54801 -25.62369 36310 ft 488 kts 263°
2026-04-30 13:45 51.53091 -25.78507 36317 ft 488 kts 263°
2026-04-30 13:46 51.51939 -25.89252 36310 ft 488 kts 263°
2026-04-30 13:46 51.50776 -26.00009 36317 ft 489 kts 263°
2026-04-30 13:47 51.49603 -26.10761 36325 ft 489 kts 263°
2026-04-30 13:47 51.48420 -26.21507 36325 ft 489 kts 263°
2026-04-30 13:48 51.47226 -26.32255 36326 ft 489 kts 263°
2026-04-30 13:48 51.46023 -26.42993 36324 ft 490 kts 263°
2026-04-30 13:49 51.44808 -26.53747 36328 ft 491 kts 263°
2026-04-30 13:49 51.43581 -26.64512 36333 ft 491 kts 263°
2026-04-30 13:50 51.42344 -26.75273 36332 ft 491 kts 262°
2026-04-30 13:50 51.40474 -26.91368 36335 ft 492 kts 262°
2026-04-30 13:51 51.39208 -27.02145 36338 ft 493 kts 262°
2026-04-30 13:51 51.37932 -27.12922 36338 ft 493 kts 262°
2026-04-30 13:52 51.36647 -27.23689 36341 ft 493 kts 262°
2026-04-30 13:52 51.35350 -27.34470 36338 ft 493 kts 262°
2026-04-30 13:53 51.34041 -27.45257 36344 ft 494 kts 262°
2026-04-30 13:53 51.32722 -27.56043 36344 ft 494 kts 262°
2026-04-30 13:54 51.31391 -27.66829 36349 ft 494 kts 262°
2026-04-30 13:54 51.30051 -27.77615 36337 ft 494 kts 262°
2026-04-30 13:55 51.28701 -27.88390 36353 ft 495 kts 261°
2026-04-30 13:55 51.27338 -27.99186 36354 ft 496 kts 261°
2026-04-30 13:56 51.25964 -28.09973 36354 ft 495 kts 261°
2026-04-30 13:56 51.24582 -28.20746 36358 ft 495 kts 261°
2026-04-30 13:57 51.23190 -28.31518 36353 ft 496 kts 261°
2026-04-30 13:57 51.21792 -28.42251 36359 ft 497 kts 261°
2026-04-30 13:58 51.19656 -28.58495 36354 ft 500 kts 261°
2026-04-30 13:59 51.18215 -28.69340 36359 ft 500 kts 261°
2026-04-30 13:59 51.16764 -28.80194 36361 ft 501 kts 260°
2026-04-30 14:00 51.15299 -28.91054 36369 ft 501 kts 260°
2026-04-30 14:00 51.13084 -29.07332 36372 ft 502 kts 260°
2026-04-30 14:01 51.11595 -29.18179 36360 ft 502 kts 260°
2026-04-30 14:01 51.10094 -29.29031 36367 ft 502 kts 259°
2026-04-30 14:02 51.08582 -29.39881 36373 ft 502 kts 259°
2026-04-30 14:02 51.07071 -29.50646 36369 ft 502 kts 259°
2026-04-30 14:03 51.05539 -29.61481 36374 ft 502 kts 259°
2026-04-30 14:03 51.03997 -29.72314 36370 ft 503 kts 259°
2026-04-30 14:04 51.02443 -29.83147 36375 ft 503 kts 259°
2026-04-30 14:04 51.00880 -29.93969 36373 ft 503 kts 259°
2026-04-30 14:05 50.99749 -30.04892 36379 ft 501 kts 266°
2026-04-30 14:05 50.99073 -30.15898 36380 ft 500 kts 267°
2026-04-30 14:06 50.98252 -30.30556 36381 ft 502 kts 267°
2026-04-30 14:07 50.97289 -30.47128 36386 ft 503 kts 266°
2026-04-30 14:08 50.96287 -30.63699 36387 ft 503 kts 266°
2026-04-30 14:08 50.95261 -30.80286 36387 ft 504 kts 266°
2026-04-30 14:09 50.94563 -30.91348 36388 ft 504 kts 266°
2026-04-30 14:10 50.93502 -31.07850 36392 ft 504 kts 266°
2026-04-30 14:10 50.92777 -31.18932 36391 ft 504 kts 266°
2026-04-30 14:11 50.92042 -31.29997 36393 ft 505 kts 265°
2026-04-30 14:11 50.91295 -31.41074 36387 ft 505 kts 265°
2026-04-30 14:12 50.90538 -31.52156 36395 ft 507 kts 265°
2026-04-30 14:12 50.89768 -31.63254 36395 ft 507 kts 265°
2026-04-30 14:13 50.88987 -31.74359 36398 ft 508 kts 265°
2026-04-30 14:13 50.88199 -31.85415 36398 ft 508 kts 265°
2026-04-30 14:14 50.87395 -31.96535 36400 ft 508 kts 265°
2026-04-30 14:14 50.86582 -32.07646 36401 ft 508 kts 265°
2026-04-30 14:15 50.85757 -32.18757 36396 ft 508 kts 264°
2026-04-30 14:15 50.84922 -32.29873 36403 ft 509 kts 264°
2026-04-30 14:16 50.84076 -32.40985 36406 ft 509 kts 264°
2026-04-30 14:16 50.83223 -32.52031 36406 ft 509 kts 264°
2026-04-30 14:17 50.82355 -32.63149 36408 ft 510 kts 264°
2026-04-30 14:17 50.81475 -32.74277 36409 ft 511 kts 264°
2026-04-30 14:18 50.80583 -32.85419 36411 ft 511 kts 264°
2026-04-30 14:18 50.79224 -33.02126 36414 ft 511 kts 263°
2026-04-30 14:19 50.77842 -33.18827 36409 ft 511 kts 263°
2026-04-30 14:20 50.76913 -33.29893 36413 ft 511 kts 263°
2026-04-30 14:20 50.75489 -33.46587 36414 ft 511 kts 263°
2026-04-30 14:21 50.74527 -33.57719 36414 ft 511 kts 263°
2026-04-30 14:22 50.73063 -33.74416 36415 ft 512 kts 263°
2026-04-30 14:22 50.71571 -33.91134 36419 ft 513 kts 262°
2026-04-30 14:23 50.69545 -34.13417 36419 ft 513 kts 262°
2026-04-30 14:24 50.68004 -34.30050 36422 ft 514 kts 262°
2026-04-30 14:25 50.65898 -34.52362 36418 ft 514 kts 262°
2026-04-30 14:26 50.64292 -34.69062 36433 ft 514 kts 262°
2026-04-30 14:27 50.62663 -34.85755 36430 ft 514 kts 261°
2026-04-30 14:27 50.61561 -34.96889 36428 ft 514 kts 261°
2026-04-30 14:28 50.59897 -35.13511 36426 ft 514 kts 261°
2026-04-30 14:28 50.58769 -35.24631 36424 ft 514 kts 261°
2026-04-30 14:29 50.56679 -35.44966 36421 ft 514 kts 261°
2026-04-30 14:31 50.53567 -35.74595 36425 ft 514 kts 260°
2026-04-30 14:31 50.51796 -35.91124 36422 ft 513 kts 260°
2026-04-30 14:32 50.49993 -36.07720 36426 ft 515 kts 260°
2026-04-30 14:33 50.48772 -36.18829 36428 ft 515 kts 260°
2026-04-30 14:33 50.46924 -36.35454 36425 ft 515 kts 260°
2026-04-30 14:34 50.45688 -36.46453 36429 ft 515 kts 259°
2026-04-30 14:34 50.44431 -36.57531 36428 ft 515 kts 259°
2026-04-30 14:35 50.42528 -36.74131 36430 ft 514 kts 259°
2026-04-30 14:36 50.41249 -36.85162 36427 ft 514 kts 259°
2026-04-30 14:36 50.39959 -36.96188 36430 ft 514 kts 259°
2026-04-30 14:37 50.38669 -37.07130 36429 ft 514 kts 259°
2026-04-30 14:37 50.37359 -37.18136 36432 ft 515 kts 259°
2026-04-30 14:38 50.36035 -37.29171 36427 ft 516 kts 259°
2026-04-30 14:38 50.34699 -37.40217 36428 ft 516 kts 259°
2026-04-30 14:39 50.33352 -37.51257 36429 ft 516 kts 258°
2026-04-30 14:39 50.31995 -37.62293 36430 ft 516 kts 258°
2026-04-30 14:40 50.29942 -37.78812 36429 ft 515 kts 258°
2026-04-30 14:40 50.28558 -37.89827 36432 ft 515 kts 258°
2026-04-30 14:41 50.27178 -38.00736 36432 ft 515 kts 258°
2026-04-30 14:41 50.25775 -38.11731 36429 ft 515 kts 258°
2026-04-30 14:42 50.24364 -38.22703 36433 ft 514 kts 258°
2026-04-30 14:42 50.22942 -38.33669 36439 ft 516 kts 258°
2026-04-30 14:43 50.21505 -38.44674 36432 ft 517 kts 258°
2026-04-30 14:43 50.20058 -38.55660 36432 ft 517 kts 258°
2026-04-30 14:44 50.18600 -38.66649 36430 ft 516 kts 258°
2026-04-30 14:44 50.17135 -38.77610 36435 ft 516 kts 257°
2026-04-30 14:45 50.15659 -38.88563 36433 ft 516 kts 257°
2026-04-30 14:45 50.14182 -38.99444 36433 ft 516 kts 257°
2026-04-30 14:46 50.12684 -39.10392 36437 ft 516 kts 257°
2026-04-30 14:46 50.11435 -39.19464 36435 ft 515 kts 257°
2026-04-30 14:47 50.09665 -39.32226 36433 ft 515 kts 257°
2026-04-30 14:47 50.08139 -39.43129 36437 ft 516 kts 257°
2026-04-30 14:48 50.06610 -39.53984 36438 ft 517 kts 257°
2026-04-30 14:48 50.05059 -39.64920 36438 ft 517 kts 257°
2026-04-30 14:49 50.03498 -39.75838 36435 ft 517 kts 257°
2026-04-30 14:49 50.01929 -39.86741 36435 ft 517 kts 257°
2026-04-30 14:50 49.99871 -40.03173 36439 ft 517 kts 263°
2026-04-30 14:51 49.98855 -40.19852 36436 ft 517 kts 265°
2026-04-30 14:52 49.97918 -40.36542 36431 ft 517 kts 265°
2026-04-30 14:52 49.96934 -40.53262 36432 ft 518 kts 264°
2026-04-30 14:53 49.95917 -40.69973 36438 ft 518 kts 264°
2026-04-30 14:54 49.94525 -40.92237 36438 ft 518 kts 264°
2026-04-30 14:55 49.93458 -41.08862 36441 ft 518 kts 264°
2026-04-30 14:56 49.91992 -41.31114 36440 ft 519 kts 264°
2026-04-30 14:57 49.90863 -41.47821 36443 ft 519 kts 264°
2026-04-30 14:58 49.89452 -41.68201 36447 ft 519 kts 264°
2026-04-30 14:58 49.88270 -41.84881 36441 ft 518 kts 264°
2026-04-30 15:00 49.86252 -42.12586 36440 ft 519 kts 263°
2026-04-30 15:01 49.84585 -42.34809 36444 ft 519 kts 263°
2026-04-30 15:01 49.83308 -42.51455 36446 ft 518 kts 263°
2026-04-30 15:02 49.82443 -42.62539 36444 ft 518 kts 263°
2026-04-30 15:03 49.80236 -42.90233 36437 ft 518 kts 263°
2026-04-30 15:04 49.77967 -43.17864 36441 ft 518 kts 263°
2026-04-30 15:06 49.75632 -43.45458 36438 ft 517 kts 263°
2026-04-30 15:07 49.73726 -43.67422 36441 ft 516 kts 262°
2026-04-30 15:08 49.71774 -43.89410 36444 ft 516 kts 262°
2026-04-30 15:09 49.69278 -44.16844 36445 ft 516 kts 262°
2026-04-30 15:10 49.67235 -44.38767 36451 ft 515 kts 262°
2026-04-30 15:11 49.64096 -44.71584 36448 ft 515 kts 262°
2026-04-30 15:13 49.61418 -44.98813 36451 ft 514 kts 262°
2026-04-30 15:14 49.57562 -45.36877 36449 ft 512 kts 261°
2026-04-30 15:17 49.52444 -45.85519 36448 ft 512 kts 261°
2026-04-30 15:19 49.47735 -46.28574 36448 ft 509 kts 260°
2026-04-30 17:39 38.83808 -66.39146 37815 ft 430 kts 232°
2026-04-30 17:42 38.63236 -66.66911 37826 ft 425 kts 237°
2026-04-30 17:43 38.54470 -66.81986 37829 ft 423 kts 239°
2026-04-30 17:44 38.43991 -67.00206 37832 ft 425 kts 238°
2026-04-30 17:47 38.28192 -67.27433 37839 ft 424 kts 238°
2026-04-30 17:48 38.15922 -67.48426 37851 ft 424 kts 238°
2026-04-30 17:50 38.01812 -67.72402 37857 ft 424 kts 238°
2026-04-30 17:52 37.91173 -67.90363 37858 ft 425 kts 238°
2026-04-30 17:54 37.75273 -68.17026 37856 ft 426 kts 237°
2026-04-30 17:56 37.60958 -68.40847 37856 ft 426 kts 237°
2026-04-30 17:58 37.50202 -68.58632 37859 ft 424 kts 237°
2026-04-30 18:00 37.35891 -68.82157 37857 ft 423 kts 237°
2026-04-30 18:01 37.26922 -68.96814 37857 ft 425 kts 236°
2026-04-30 18:02 37.16062 -69.14467 37855 ft 427 kts 236°
2026-04-30 18:04 37.05125 -69.32155 37849 ft 431 kts 236°
2026-04-30 18:06 36.90390 -69.55834 37857 ft 431 kts 236°
2026-04-30 18:08 36.77406 -69.76566 37851 ft 434 kts 235°
2026-04-30 18:10 36.63092 -69.99272 37838 ft 435 kts 235°
2026-04-30 18:11 36.49954 -70.19980 37805 ft 435 kts 235°
2026-04-30 18:13 36.40563 -70.34704 37838 ft 436 kts 235°
2026-04-30 18:14 36.31132 -70.49428 37815 ft 436 kts 234°
2026-04-30 18:15 36.19763 -70.67090 37830 ft 437 kts 234°
2026-04-30 18:16 36.12172 -70.78837 37813 ft 437 kts 234°
2026-04-30 18:17 36.08376 -70.84694 37831 ft 436 kts 234°
2026-04-30 18:18 36.02690 -70.93441 37823 ft 438 kts 234°
2026-04-30 18:18 35.98850 -70.99344 37823 ft 438 kts 234°
2026-04-30 18:19 35.95030 -71.05206 37829 ft 438 kts 234°
2026-04-30 18:19 35.91240 -71.11012 37826 ft 436 kts 233°
2026-04-30 18:20 35.87430 -71.16835 37826 ft 436 kts 233°
2026-04-30 18:20 35.83622 -71.22644 37826 ft 435 kts 233°
2026-04-30 18:21 35.79814 -71.28447 37829 ft 435 kts 233°
2026-04-30 18:21 35.75997 -71.34251 37829 ft 435 kts 233°
2026-04-30 18:22 35.72187 -71.40038 37829 ft 434 kts 234°
2026-04-30 18:22 35.66495 -71.48662 37839 ft 433 kts 234°
2026-04-30 18:23 35.62696 -71.54407 37832 ft 433 kts 234°
2026-04-30 18:23 35.58899 -71.60141 37834 ft 432 kts 233°
2026-04-30 18:24 35.53205 -71.68707 37834 ft 430 kts 234°
2026-04-30 18:25 35.49430 -71.74380 37834 ft 428 kts 234°
2026-04-30 18:25 35.43776 -71.82866 37834 ft 428 kts 234°
2026-04-30 18:26 35.38135 -71.91307 37846 ft 428 kts 234°
2026-04-30 18:27 35.32365 -71.99633 37835 ft 429 kts 230°
2026-04-30 18:28 35.25436 -72.06724 37835 ft 434 kts 225°
2026-04-30 18:28 35.18294 -72.13564 37837 ft 434 kts 224°
2026-04-30 18:29 35.08795 -72.22680 37839 ft 434 kts 225°
2026-04-30 18:30 34.99335 -72.31761 37836 ft 431 kts 226°
2026-04-30 18:31 34.93247 -72.39447 37830 ft 418 kts 237°
2026-04-30 18:32 34.87757 -72.47658 37840 ft 415 kts 238°
2026-04-30 18:33 34.82293 -72.55856 37839 ft 415 kts 237°
2026-04-30 18:33 34.76809 -72.64019 37845 ft 414 kts 237°
2026-04-30 18:34 34.71340 -72.72132 37840 ft 413 kts 237°
2026-04-30 18:35 34.67696 -72.77530 37841 ft 413 kts 237°
2026-04-30 18:35 34.64047 -72.82927 37843 ft 413 kts 237°
2026-04-30 18:36 34.58574 -72.91007 37844 ft 413 kts 237°
2026-04-30 18:37 34.53101 -72.99065 37832 ft 410 kts 238°
2026-04-30 18:37 34.49505 -73.04349 37845 ft 407 kts 238°
2026-04-30 18:38 34.45901 -73.09640 37848 ft 407 kts 238°
2026-04-30 18:38 34.42295 -73.14927 37845 ft 407 kts 238°
2026-04-30 18:39 34.38688 -73.20207 37845 ft 407 kts 238°
2026-04-30 18:39 34.35081 -73.25477 37849 ft 407 kts 238°
2026-04-30 18:40 34.31468 -73.30748 37855 ft 407 kts 238°
2026-04-30 18:40 34.27861 -73.36001 37855 ft 405 kts 238°
2026-04-30 18:41 34.24267 -73.41231 37850 ft 404 kts 238°
2026-04-30 18:41 34.20673 -73.46453 37852 ft 404 kts 238°
2026-04-30 18:42 34.17074 -73.51675 37839 ft 404 kts 238°
2026-04-30 18:42 34.11675 -73.59490 37840 ft 405 kts 239°
2026-04-30 18:45 33.91750 -73.88192 37824 ft 406 kts 238°
2026-04-30 18:46 33.88106 -73.93419 37854 ft 409 kts 239°
2026-04-30 18:46 33.84446 -73.98660 37856 ft 409 kts 239°
2026-04-30 18:47 33.80778 -74.03902 37854 ft 409 kts 239°
2026-04-30 18:47 33.77113 -74.09130 37855 ft 408 kts 239°
2026-04-30 18:48 33.73451 -74.14351 37862 ft 408 kts 239°
2026-04-30 18:48 33.69788 -74.19563 37840 ft 408 kts 239°
2026-04-30 18:49 33.66096 -74.24817 37858 ft 413 kts 239°
2026-04-30 18:49 33.62382 -74.30089 37857 ft 414 kts 239°
2026-04-30 18:50 33.58661 -74.35358 37858 ft 414 kts 239°
2026-04-30 18:50 33.54939 -74.40620 37857 ft 413 kts 239°
2026-04-30 18:51 33.51228 -74.45871 37860 ft 412 kts 239°
2026-04-30 18:51 33.47577 -74.51163 37844 ft 413 kts 240°
2026-04-30 18:52 33.43952 -74.56470 37857 ft 415 kts 240°
2026-04-30 18:52 33.40276 -74.61820 37858 ft 416 kts 240°
2026-04-30 18:53 33.36588 -74.67161 37856 ft 416 kts 240°
2026-04-30 18:53 33.33494 -74.71632 37851 ft 416 kts 240°
2026-04-30 18:54 33.29804 -74.76960 37856 ft 416 kts 240°
2026-04-30 18:54 33.26107 -74.82289 37845 ft 417 kts 240°
2026-04-30 18:55 33.22403 -74.87631 38142 ft 421 kts 240°
2026-04-30 18:55 33.18664 -74.92997 38699 ft 419 kts 240°
2026-04-30 18:55 33.16801 -74.95668 38893 ft 419 kts 240°
2026-04-30 18:56 33.13071 -75.01015 39254 ft 419 kts 239°
2026-04-30 18:56 33.11203 -75.03693 39420 ft 419 kts 239°
2026-04-30 18:56 33.09336 -75.06367 39577 ft 419 kts 239°
2026-04-30 18:57 33.05592 -75.11725 39833 ft 422 kts 239°
2026-04-30 18:57 33.01819 -75.17117 39862 ft 425 kts 239°
2026-04-30 18:58 32.96129 -75.25225 39861 ft 425 kts 239°
2026-04-30 18:59 32.90434 -75.33323 39863 ft 425 kts 239°
2026-04-30 19:00 32.82832 -75.44106 39849 ft 426 kts 239°
2026-04-30 19:01 32.75184 -75.54935 39859 ft 430 kts 239°
2026-04-30 19:02 32.69399 -75.63094 39859 ft 430 kts 239°
2026-04-30 19:03 32.61670 -75.73969 39863 ft 431 kts 239°
2026-04-30 19:04 32.53936 -75.84825 39862 ft 431 kts 239°
2026-04-30 19:05 32.46189 -75.95664 39864 ft 431 kts 239°
2026-04-30 19:06 32.38433 -76.06484 39864 ft 431 kts 238°
2026-04-30 19:06 32.32616 -76.14585 39865 ft 434 kts 239°
2026-04-30 19:07 32.26742 -76.22741 39863 ft 435 kts 239°
2026-04-30 19:08 32.18893 -76.33609 39866 ft 435 kts 239°
2026-04-30 19:09 32.12998 -76.41753 39861 ft 436 kts 239°
2026-04-30 19:09 32.09044 -76.47211 39868 ft 438 kts 239°
2026-04-30 19:10 32.01115 -76.58120 39865 ft 440 kts 239°
2026-04-30 19:11 31.95128 -76.66334 39864 ft 440 kts 239°
2026-04-30 19:12 31.91129 -76.71810 39842 ft 440 kts 239°
2026-04-30 19:12 31.87119 -76.77300 39866 ft 444 kts 239°
2026-04-30 19:13 31.79054 -76.88307 39861 ft 444 kts 238°
2026-04-30 19:14 31.75014 -76.93807 39871 ft 444 kts 238°
2026-04-30 19:14 31.70977 -76.99301 39863 ft 444 kts 238°
2026-04-30 19:15 31.67293 -77.04972 39852 ft 437 kts 244°
2026-04-30 19:15 31.62052 -77.13778 39868 ft 439 kts 243°
2026-04-30 19:16 31.58487 -77.19611 39867 ft 440 kts 243°
2026-04-30 19:17 31.53075 -77.28313 39869 ft 440 kts 243°
2026-04-30 19:17 31.47652 -77.37002 39869 ft 440 kts 243°
2026-04-30 19:18 31.42233 -77.45680 39881 ft 441 kts 242°
2026-04-30 19:19 31.38608 -77.51474 39866 ft 441 kts 242°
2026-04-30 19:19 31.33186 -77.60120 39868 ft 441 kts 242°
2026-04-30 19:20 31.29557 -77.65896 39868 ft 440 kts 242°
2026-04-30 19:21 31.24122 -77.74544 39874 ft 440 kts 242°
2026-04-30 19:22 31.16855 -77.86055 39876 ft 440 kts 241°
2026-04-30 19:23 31.05964 -78.03250 39883 ft 437 kts 241°
2026-04-30 19:24 31.00532 -78.11798 39884 ft 437 kts 241°
2026-04-30 19:25 30.91461 -78.26046 39889 ft 439 kts 240°
2026-04-30 19:26 30.84189 -78.37411 39892 ft 439 kts 240°
2026-04-30 19:27 30.78720 -78.45949 39892 ft 439 kts 240°
2026-04-30 19:28 30.73239 -78.54481 39850 ft 439 kts 240°
2026-04-30 19:29 30.65878 -78.65910 39900 ft 443 kts 240°
2026-04-30 19:30 30.57104 -78.76212 39901 ft 452 kts 230°
2026-04-30 19:31 30.47729 -78.85952 39893 ft 452 kts 230°
2026-04-30 19:31 30.40679 -78.93252 39906 ft 453 kts 229°
2026-04-30 19:32 30.35970 -78.98118 39902 ft 454 kts 229°
2026-04-30 19:32 30.31260 -79.02979 39900 ft 454 kts 229°
2026-04-30 19:33 30.26579 -79.07804 39905 ft 453 kts 229°
2026-04-30 19:33 30.21875 -79.12645 39906 ft 452 kts 229°
2026-04-30 19:34 30.17178 -79.17474 39908 ft 452 kts 229°
2026-04-30 19:35 30.10128 -79.24709 39908 ft 452 kts 229°
2026-04-30 19:35 30.05431 -79.29522 39910 ft 452 kts 229°
2026-04-30 19:36 30.00724 -79.34339 39915 ft 452 kts 229°
2026-04-30 19:36 29.93659 -79.41557 39915 ft 454 kts 229°
2026-04-30 19:37 29.88924 -79.46386 39913 ft 455 kts 229°
2026-04-30 19:37 29.84187 -79.51210 39913 ft 455 kts 229°
2026-04-30 19:38 29.79445 -79.56033 39913 ft 455 kts 229°
2026-04-30 19:38 29.74730 -79.60822 39916 ft 455 kts 229°
2026-04-30 19:39 29.69983 -79.65638 39895 ft 455 kts 229°
2026-04-30 19:39 29.65213 -79.70473 39917 ft 459 kts 229°
2026-04-30 19:40 29.60419 -79.75323 39914 ft 459 kts 229°
2026-04-30 19:40 29.56430 -79.79354 39914 ft 459 kts 229°
2026-04-30 19:41 29.51626 -79.84202 39913 ft 459 kts 229°
2026-04-30 19:41 29.46825 -79.89042 39911 ft 459 kts 229°
2026-04-30 19:42 29.42017 -79.93883 39911 ft 461 kts 228°
2026-04-30 19:42 29.37185 -79.98742 39914 ft 463 kts 228°
2026-04-30 19:43 29.32372 -80.03573 39914 ft 463 kts 228°
2026-04-30 19:44 29.25102 -80.10861 39911 ft 463 kts 228°
2026-04-30 19:44 29.20255 -80.15712 39911 ft 463 kts 228°
2026-04-30 19:45 29.15405 -80.20560 39909 ft 464 kts 228°
2026-04-30 19:45 29.10532 -80.25425 39914 ft 465 kts 228°
2026-04-30 19:46 29.05656 -80.30285 39858 ft 465 kts 228°
2026-04-30 19:46 29.03222 -80.32707 39618 ft 462 kts 228°
2026-04-30 19:46 29.00799 -80.35118 39374 ft 462 kts 228°
2026-04-30 19:46 28.98371 -80.37533 39129 ft 462 kts 228°
2026-04-30 19:47 28.95946 -80.39945 38899 ft 463 kts 228°
2026-04-30 19:47 28.94332 -80.41549 38742 ft 463 kts 228°
2026-04-30 19:47 28.91099 -80.44755 38048 ft 458 kts 228°
2026-04-30 19:47 28.88701 -80.47134 37440 ft 455 kts 227°
2026-04-30 19:48 28.86320 -80.49496 36816 ft 453 kts 227°
2026-04-30 19:48 28.83944 -80.51850 36204 ft 452 kts 227°
2026-04-30 19:48 28.81579 -80.54206 35568 ft 450 kts 228°
2026-04-30 19:48 28.79425 -80.56679 35049 ft 441 kts 236°
2026-04-30 19:49 28.77629 -80.59464 34580 ft 430 kts 244°
2026-04-30 19:49 28.75145 -80.65495 33634 ft 415 kts 252°
2026-04-30 19:49 28.74057 -80.68522 33156 ft 410 kts 252°
2026-04-30 19:50 28.72981 -80.71507 32717 ft 405 kts 252°
2026-04-30 19:50 28.71913 -80.74459 32276 ft 400 kts 252°
2026-04-30 19:50 28.70856 -80.77372 31814 ft 397 kts 252°
2026-04-30 19:50 28.69804 -80.80276 31356 ft 395 kts 252°
2026-04-30 19:51 28.68753 -80.83157 30918 ft 393 kts 252°
2026-04-30 19:51 28.67707 -80.86021 30472 ft 391 kts 251°
2026-04-30 19:51 28.66665 -80.88871 30045 ft 388 kts 251°
2026-04-30 19:51 28.65631 -80.91696 29561 ft 385 kts 251°
2026-04-30 19:52 28.64606 -80.94490 29103 ft 380 kts 251°
2026-04-30 19:52 28.63510 -80.97236 28680 ft 382 kts 248°
2026-04-30 19:52 28.62367 -80.99961 28244 ft 381 kts 248°
2026-04-30 19:52 28.61230 -81.02678 27794 ft 379 kts 248°
2026-04-30 19:53 28.60107 -81.05376 27367 ft 376 kts 249°
2026-04-30 19:53 28.58992 -81.08064 26961 ft 374 kts 249°
2026-04-30 19:53 28.57890 -81.10729 26500 ft 371 kts 249°
2026-04-30 19:53 28.56796 -81.13378 26080 ft 368 kts 249°
2026-04-30 19:54 28.55709 -81.16008 25659 ft 366 kts 249°
2026-04-30 19:54 28.54647 -81.18582 25239 ft 363 kts 249°
2026-04-30 19:54 28.53576 -81.21172 24802 ft 361 kts 250°
2026-04-30 19:54 28.52510 -81.23747 24388 ft 358 kts 250°
2026-04-30 19:55 28.51439 -81.26335 23951 ft 356 kts 250°
2026-04-30 19:55 28.50390 -81.28866 23524 ft 353 kts 250°
2026-04-30 19:55 28.49370 -81.31360 23055 ft 350 kts 251°
2026-04-30 19:55 28.48592 -81.33955 22616 ft 344 kts 259°
2026-04-30 19:56 28.48022 -81.36583 22187 ft 341 kts 260°
2026-04-30 19:56 28.47478 -81.39211 21766 ft 339 kts 260°
2026-04-30 19:56 28.46939 -81.41809 21357 ft 337 kts 260°
2026-04-30 19:56 28.46401 -81.44391 20949 ft 335 kts 260°
2026-04-30 19:57 28.45862 -81.46962 20522 ft 333 kts 260°
2026-04-30 19:57 28.45326 -81.49511 20108 ft 331 kts 260°
2026-04-30 19:57 28.44791 -81.52055 19718 ft 329 kts 259°
2026-04-30 19:57 28.44259 -81.54576 19295 ft 327 kts 259°
2026-04-30 19:58 28.43729 -81.57088 18880 ft 326 kts 259°
2026-04-30 19:58 28.43202 -81.59582 18469 ft 324 kts 259°
2026-04-30 19:58 28.42676 -81.62067 18033 ft 322 kts 259°
2026-04-30 19:58 28.42154 -81.64532 17622 ft 320 kts 259°
2026-04-30 19:59 28.41634 -81.66983 17215 ft 318 kts 259°
2026-04-30 19:59 28.41117 -81.69420 16812 ft 316 kts 259°
2026-04-30 19:59 28.40095 -81.74232 16008 ft 314 kts 259°
2026-04-30 20:00 28.39576 -81.76670 15605 ft 312 kts 259°
2026-04-30 20:00 28.39068 -81.79057 15203 ft 310 kts 259°
2026-04-30 20:00 28.38569 -81.81400 14815 ft 309 kts 259°
2026-04-30 20:00 28.38063 -81.83768 14415 ft 307 kts 259°
2026-04-30 20:01 28.37062 -81.88457 13618 ft 304 kts 258°
2026-04-30 20:01 28.36565 -81.90779 13194 ft 302 kts 258°
2026-04-30 20:01 28.36127 -81.93098 12790 ft 298 kts 264°
2026-04-30 20:02 28.36028 -81.97754 12025 ft 293 kts 272°
2026-04-30 20:02 28.36056 -82.00058 11630 ft 291 kts 272°
2026-04-30 20:03 28.35391 -82.04680 10922 ft 298 kts 254°
2026-04-30 20:03 28.34725 -82.06879 10608 ft 290 kts 253°
2026-04-30 20:03 28.34064 -82.08992 10395 ft 278 kts 253°
2026-04-30 20:03 28.33423 -82.11025 10149 ft 270 kts 253°
2026-04-30 20:04 28.32789 -82.13023 9741 ft 268 kts 253°
2026-04-30 20:04 28.32157 -82.15018 9230 ft 268 kts 252°
2026-04-30 20:04 28.31543 -82.17007 8760 ft 267 kts 253°
2026-04-30 20:05 28.30354 -82.21013 7786 ft 268 kts 253°
2026-04-30 20:05 28.29768 -82.23015 7305 ft 268 kts 253°
2026-04-30 20:05 28.28626 -82.27027 6477 ft 266 kts 253°
2026-04-30 20:06 28.28083 -82.28996 6238 ft 256 kts 253°
2026-04-30 20:06 28.27567 -82.30884 6070 ft 245 kts 253°
2026-04-30 20:06 28.27077 -82.32684 5753 ft 241 kts 254°
2026-04-30 20:06 28.26582 -82.34509 5441 ft 237 kts 253°
2026-04-30 20:07 28.26110 -82.36262 5091 ft 235 kts 253°
2026-04-30 20:07 28.25637 -82.38037 4729 ft 233 kts 253°
2026-04-30 20:07 28.24698 -82.41566 4021 ft 229 kts 253°
2026-04-30 20:08 28.24252 -82.43263 3835 ft 220 kts 254°
2026-04-30 20:08 28.23817 -82.44894 3651 ft 212 kts 253°
2026-04-30 20:08 28.23371 -82.46444 3433 ft 204 kts 248°
2026-04-30 20:08 28.22472 -82.47686 3095 ft 208 kts 219°
2026-04-30 20:09 28.21248 -82.48602 3006 ft 214 kts 214°
2026-04-30 20:09 28.19992 -82.49473 2996 ft 207 kts 214°
2026-04-30 20:09 28.17552 -82.51113 2999 ft 201 kts 213°
2026-04-30 20:10 28.15304 -82.52616 2992 ft 182 kts 213°
2026-04-30 20:10 28.14207 -82.53336 2968 ft 183 kts 210°
2026-04-30 20:10 28.12973 -82.53679 2685 ft 186 kts 186°
2026-04-30 20:11 28.10396 -82.53743 2155 ft 181 kts 186°
2026-04-30 20:11 28.09164 -82.53791 1908 ft 173 kts 188°
2026-04-30 20:11 28.07997 -82.53831 1682 ft 162 kts 186°
2026-04-30 20:12 28.05893 -82.53906 1294 ft 145 kts 186°
2026-04-30 20:12 28.04882 -82.53942 1092 ft 145 kts 186°
2026-04-30 20:12 28.03866 -82.53977 925 ft 146 kts 188°
2026-04-30 20:13 28.02848 -82.54020 691 ft 150 kts 187°
2026-04-30 20:13 28.01800 -82.54069 569 ft 153 kts 186°
2026-04-30 20:13 28.00728 -82.54077 330 ft 152 kts 184°
2026-04-30 20:13 27.99679 -82.54113 165 ft 149 kts 186°
2026-04-30 20:14 27.98670 -82.54153 55 ft 138 kts 186°
2026-04-30 20:14 27.97921 -82.54183 50 ft 74 kts 181°
2026-04-30 20:14 27.97563 -82.54189 51 ft 44 kts 177°
2026-04-30 20:14 27.97399 -82.54118 51 ft 20 kts 136°
2026-04-30 20:15 27.97379 -82.54025 50 ft 12 kts 56°
2026-04-30 20:15 27.97436 -82.53997 49 ft 8 kts
2026-04-30 20:15 27.97503 -82.53991 50 ft 11 kts
2026-04-30 20:15 27.97575 -82.53986 50 ft 9 kts
2026-04-30 20:16 27.97610 -82.53935 46 ft 10 kts 90°
2026-04-30 20:16 27.97574 -82.53851 50 ft 14 kts 123°
2026-04-30 20:16 27.97561 -82.53825 47 ft 5 kts 112°
2026-04-30 20:16 27.97565 -82.53776 49 ft 8 kts 73°
2026-04-30 20:17 27.97585 -82.53739 46 ft 0 kts 54°
2026-04-30 20:17 27.97589 -82.53733 48 ft 0 kts 54°